User: anonymous   Login
Location: LDNL
(36.4545°S, 141.6685°E)
Time: 14:32:04
(UTC+10:00)
Language:

A-11 Canister half - Orbit

View from above orbital plane
View from above orbital plane
View from above satellite
View from above satellite

Ground track
Ground track

The orbit data is extracted from the following two-line orbital elements,

1 00053U 60009E   22176.30849311  .00000001  00000-0  85130-3 0  9991
2 00053  47.2741 143.5174 0096786 101.0779 260.0911 12.17271598758441
Epoch (UTC): 25 June 2022 07:24:13
Eccentricity: 0.0096786
inclination: 47.2741°
perigee height: 1527 km
apogee height: 1682 km
right ascension of ascending node: 143.5174°
argument of perigee: 101.0779°
revolutions per day: 12.17271598
mean anomaly at epoch: 260.0911°
orbit number at epoch: 75844

The dashed part of the orbit path shows where the satellite is in the earth's shadow,  

DLR